Location: Arran
(51.9410°N, 101.7372°W)
Time: 09:08:55
(UTC+00:00)

MOZHAYETS 4 - Visible Passes

Search period start: 08 December 2023 00:00
Search period end: 18 December 2023 00:00
Orbit: 656 x 672 km, 98.3° (Epoch: 08 December)

Date Brightness Start Highest point End Pass type
(mag) Time Alt. Az. Time Alt. Az. Time Alt. Az.
09 Dec 10.2 00:30:22 10° NNW 00:33:33 19° WNW 00:36:43 10° W visible
09 Dec 8.3 23:23:21 10° N 23:27:55 59° WNW 23:32:26 10° SSW visible
10 Dec 10.5 01:02:31 10° NNW 01:03:57 11° NW 01:05:24 10° WNW visible
10 Dec 9.3 23:54:27 10° N 23:58:36 33° WNW 00:02:43 10° SW visible
12 Dec 10.1 00:25:49 10° N 00:29:10 20° WNW 00:32:30 10° WSW visible
12 Dec 8.2 23:18:54 10° N 23:23:29 65° WNW 23:28:02 10° SSW visible
13 Dec 10.5 00:57:44 10° NNW 00:59:36 12° NW 01:01:27 10° WNW visible
13 Dec 9.2 23:49:57 10° N 23:54:11 36° WNW 23:58:23 10° SW visible
15 Dec 10.0 00:21:15 10° N 00:24:45 22° WNW 00:28:14 10° WSW visible
15 Dec 8.0 23:14:25 10° N 23:19:02 71° WNW 23:23:36 10° SSW visible
16 Dec 10.4 00:53:01 10° NNW 00:55:12 13° NW 00:57:21 10° W visible
16 Dec 9.0 23:45:26 10° N 23:49:44 39° WNW 23:54:01 10° SW visible
